Wind_Speed
11 11 12 13 14 14 14 15 16 17 18 19 20 22 24 24 25 26 28 30 32 35 38 41 43 46 48 51 55 59 63 67 70 74 77 81 85 88 89 88 85 82 79 78
9 10 11 12 12 13 14 14 15 17 18 19 19 21 24 24 25 26 28 30 33 36 39 42 44 47 50 53 57 61 65 68 71 74 78 82 85 87 87 84 81 79 77 76
8 8 9 10 11 12 13 14 16 17 18 19 20 20 23 23 24 26 28 31 34 37 40 43 46 49 51 55 59 63 66 69 72 75 79 82 85 86 84 81 78 76 75 75
6 6 7 8 10 12 13 15 16 17 19 20 21 20 23 24 25 26 29 32 35 38 41 44 47 50 53 56 60 64 67 70 72 76 79 82 84 83 81 78 76 74 74 73
3 5 6 8 10 12 14 16 17 18 19 20 21 22 23 25 26 28 31 34 37 40 43 46 49 51 54 57 61 65 68 70 73 76 79 81 82 81 79 76 74 73 72 72
2 4 6 8 10 12 14 16 17 19 20 21 23 24 25 27 28 30 33 35 38 41 44 47 49 52 55 58 62 66 68 70 73 76 79 81 81 79 76 73 72 71 71 71
1 3 5 8 10 12 14 16 18 21 22 23 24 26 27 29 30 32 35 37 40 42 45 47 50 53 56 59 63 66 68 70 73 76 78 79 79 77 74 72 70 70 69 69
1 1 4 6 9 11 14 16 20 22 23 23 26 28 30 32 33 36 38 40 41 43 45 48 51 54 57 60 63 66 68 70 72 75 77 78 77 75 73 71 69 69 69 68
2 1 2 5 8 11 13 16 19 21 23 25 28 30 32 35 37 39 41 42 44 45 47 49 52 54 57 60 64 66 68 69 72 74 76 77 76 74 71 69 68 68 68 67
4 3 3 5 8 10 13 16 20 23 26 28 30 33 35 38 40 42 44 46 47 48 49 51 53 56 58 61 64 66 67 69 71 73 75 75 74 72 70 68 67 67 66 66
6 5 5 6 9 11 14 17 20 23 26 29 31 33 35 38 41 44 47 49 50 51 52 54 55 57 59 61 64 66 67 69 71 73 74 74 73 70 69 67 66 65 65 65
9 8 8 9 10 12 14 17 20 22 25 27 30 33 36 39 42 45 48 51 53 54 55 56 57 58 59 62 64 66 67 68 70 72 73 73 71 69 68 66 65 64 64 64
12 11 11 11 12 13 15 18 20 23 25 27 30 32 36 39 42 45 49 52 55 57 58 59 59 60 60 62 64 66 67 68 69 71 72 71 70 68 67 65 63 63 63 63
16 15 15 14 15 16 17 19 21 24 26 28 30 32 35 39 42 46 49 52 56 58 60 61 61 62 62 63 64 66 66 67 69 70 71 70 69 67 66 64 63 62 62 62
19 19 18 18 17 17 19 20 22 25 28 30 31 34 36 39 43 46 49 53 56 59 61 63 64 64 63 64 65 66 66 67 68 69 70 70 68 67 65 63 62 61 61 61
23 22 22 21 21 21 20 22 24 26 29 31 33 34 37 40 43 46 50 53 56 59 62 64 66 66 65 64 65 66 66 66 67 68 69 69 67 66 64 63 61 60 59 59
27 27 26 24 24 24 23 24 26 27 30 32 34 36 38 40 43 47 49 52 56 59 62 64 66 68 67 66 66 66 66 66 67 68 68 68 67 65 64 62 60 59 58 58
30 30 30 29 28 27 26 27 29 29 31 33 35 37 39 41 43 47 50 52 56 59 62 64 66 68 68 67 66 66 66 66 66 67 68 67 66 65 63 61 60 59 58 57
33 33 34 33 33 31 29 30 32 32 31 34 36 38 40 42 44 46 49 52 55 58 61 64 66 68 69 68 67 66 66 65 66 66 67 67 65 64 62 60 59 58 57 56
36 37 37 37 37 35 32 34 35 35 35 35 37 39 42 44 46 48 50 52 55 58 61 63 66 68 69 69 67 66 66 65 65 66 66 67 65 63 61 60 58 57 56 56
38 39 40 39 40 37 35 36 37 37 38 39 40 41 43 45 47 49 50 52 54 57 60 63 65 67 68 69 68 66 66 65 64 65 66 66 65 62 61 59 57 56 55 55
40 41 41 41 41 38 37 37 39 40 40 40 42 43 44 45 47 48 50 52 54 56 59 62 64 66 67 69 68 67 66 64 64 64 65 65 65 62 60 58 56 55 54 53
41 42 44 43 40 37 37 39 41 43 42 42 43 44 45 46 47 48 49 51 53 55 58 61 63 65 66 68 68 67 66 64 63 63 64 64 64 63 60 57 55 54 53 52
44 43 45 44 38 35 37 40 42 44 44 44 45 45 46 47 48 48 49 50 52 54 57 59 62 64 65 66 68 67 65 64 63 62 63 63 63 63 60 57 54 53 51 50
47 45 44 43 36 34 37 39 41 43 45 46 46 46 47 48 48 49 48 49 51 53 55 58 60 62 64 65 66 67 65 64 62 61 61 62 62 62 60 58 54 52 51 49
51 47 45 43 38 40 39 38 40 43 44 46 47 47 47 49 49 49 48 49 51 52 54 56 59 61 62 64 65 66 65 63 61 60 60 61 61 61 59 56 54 52 50 49
Wind_Direction
328 333 336 337 339 341 343 344 342 339 337 333 330 327 328 329 329 329 327 326 324 323 322 322 322 323 323 324 324 325 325 324 324 324 323 323 322 321 321 322 322 322 322 321
331 337 339 342 345 348 349 349 348 345 340 337 334 330 330 333 332 330 328 326 325 324 323 324 325 325 326 326 326 327 326 326 326 325 325 324 324 323 324 325 325 325 325 324
335 343 349 356 359 360 359 358 355 351 347 344 342 337 334 337 334 332 330 327 326 325 325 326 327 328 328 328 328 328 328 327 327 327 326 326 326 326 327 327 328 328 328 328
341 358 11 18 18 16 11 8 3 359 356 352 350 347 341 341 338 335 331 329 327 327 328 329 329 329 329 329 329 329 329 329 329 329 328 329 329 329 330 330 330 331 331 331
354 24 34 36 33 29 24 19 14 11 6 0 357 355 351 347 342 337 334 331 331 330 330 331 330 331 331 331 331 331 330 331 331 331 331 331 331 332 332 333 333 334 334 335
36 50 52 48 44 40 34 28 24 21 16 9 6 3 358 353 348 342 338 336 334 333 332 332 332 332 333 333 332 332 332 332 333 333 333 333 334 334 335 335 336 337 337 338
85 65 57 48 43 39 35 32 29 27 22 16 11 9 4 358 354 348 344 341 338 335 334 334 334 334 335 334 334 334 334 334 335 335 335 336 336 337 337 338 339 340 340 341
187 68 48 42 37 31 29 27 27 27 24 18 15 13 7 3 359 355 351 347 343 339 337 336 336 336 336 336 336 336 336 336 337 337 337 338 338 339 339 340 341 343 344 345
230 311 15 21 23 23 22 22 21 21 19 17 16 13 9 6 3 359 355 351 347 344 341 339 339 338 338 338 338 338 338 338 338 339 339 340 341 341 342 343 344 345 346 348
249 281 328 352 1 8 11 12 11 11 12 12 10 10 8 6 4 1 358 355 352 348 345 343 341 340 340 339 339 339 339 339 340 341 341 342 343 343 344 345 346 347 349 350
256 276 305 328 343 352 358 2 5 5 5 4 5 5 4 3 2 1 359 357 355 352 349 346 344 342 342 341 341 341 341 341 342 343 343 344 344 345 346 347 348 349 351 352
259 274 291 311 326 337 345 352 356 358 360 359 359 358 359 360 360 360 359 358 356 354 351 349 346 344 343 343 342 342 342 343 343 344 345 346 346 347 348 349 350 351 352 354
262 271 284 297 311 324 334 341 346 349 351 353 354 355 354 356 357 357 357 357 356 355 353 351 348 346 345 344 344 344 344 344 345 346 346 347 348 348 349 350 351 353 354 355
263 269 278 289 302 314 324 331 336 340 344 347 348 350 351 352 354 354 355 355 355 355 354 352 350 348 346 345 345 345 345 345 346 347 348 348 349 350 351 352 353 354 355 357
264 267 275 283 292 302 313 321 328 331 335 339 342 345 348 349 351 352 353 353 353 353 353 353 351 349 347 346 346 346 346 346 347 348 349 349 350 351 352 353 354 355 356 358
265 268 272 279 287 294 304 311 317 323 327 332 335 340 343 346 347 349 350 351 351 352 352 352 352 350 348 347 346 347 347 347 348 349 350 350 351 352 353 354 355 356 358 359
266 269 271 275 280 287 295 302 309 315 320 325 330 334 338 342 344 346 348 349 350 350 351 351 351 351 349 348 347 347 348 348 349 350 350 351 352 353 354 354 356 357 359 360
266 268 272 275 278 282 291 296 302 309 315 319 323 328 333 337 341 342 345 346 348 348 349 349 350 350 350 349 348 347 348 349 349 350 351 352 353 354 354 355 356 358 359 1
266 268 271 275 278 282 287 292 298 304 310 313 318 323 327 331 336 339 341 344 345 346 347 348 349 349 350 349 348 348 348 349 350 351 352 353 353 354 355 355 356 358 360 1
265 267 270 274 277 282 288 291 295 299 303 308 313 318 323 327 331 336 338 341 343 344 345 346 347 348 349 349 348 348 348 349 350 351 352 353 354 354 355 356 356 358 360 1
263 266 269 273 276 282 288 290 293 296 301 306 310 314 319 323 327 331 334 337 340 341 343 344 346 347 348 349 348 347 348 349 349 351 352 353 354 355 355 356 357 358 360 1
265 266 268 270 274 281 284 286 289 293 297 301 305 310 314 318 322 327 330 334 337 339 341 342 344 345 346 348 348 347 347 348 349 350 352 353 354 355 355 356 357 359 0 1
266 267 268 270 275 279 282 284 287 290 294 297 301 305 309 314 318 322 326 330 333 336 338 340 342 344 345 346 348 347 347 348 349 350 351 352 353 354 355 357 358 359 0 1
266 267 268 271 274 278 279 280 283 286 290 293 297 301 305 309 314 318 323 326 330 333 335 337 340 342 343 345 347 347 346 347 348 349 350 352 353 354 355 356 358 359 0 1
266 268 270 272 275 274 273 277 280 283 287 290 294 297 301 305 309 314 318 322 326 329 332 334 337 339 341 343 345 346 346 346 347 348 350 351 352 353 354 355 357 358 360 1
265 269 272 273 274 273 271 274 276 278 281 285 289 292 296 301 305 309 314 318 322 325 329 331 334 337 339 341 343 345 345 345 346 347 349 350 351 353 354 354 355 357 359 1
Height
5894 5892 5889 5887 5884 5882 5879 5876 5873 5870 5866 5863 5860 5856 5852 5849 5845 5841 5836 5831 5825 5820 5813 5806 5799 5790 5781 5772 5761 5750 5738 5725 5711 5697 5681 5664 5646 5627 5607 5587 5568 5551 5534 5518
5893 5891 5888 5885 5883 5880 5877 5874 5871 5868 5864 5861 5858 5854 5849 5846 5842 5837 5832 5827 5821 5814 5807 5800 5792 5783 5773 5763 5752 5740 5728 5714 5700 5685 5669 5651 5632 5612 5592 5572 5553 5536 5519 5502
5891 5890 5887 5884 5881 5878 5875 5873 5870 5867 5863 5859 5856 5852 5847 5843 5839 5834 5829 5823 5816 5809 5801 5793 5784 5775 5765 5755 5743 5731 5718 5704 5689 5673 5656 5638 5618 5597 5578 5559 5541 5523 5505 5487
5890 5888 5886 5883 5880 5877 5875 5872 5868 5864 5861 5857 5854 5850 5845 5841 5836 5830 5825 5818 5811 5803 5795 5786 5777 5767 5757 5746 5734 5721 5708 5693 5678 5662 5644 5625 5606 5586 5566 5547 5529 5510 5492 5474
5889 5887 5885 5883 5880 5877 5874 5870 5867 5863 5859 5855 5851 5847 5844 5838 5832 5827 5820 5813 5805 5797 5789 5780 5770 5760 5749 5738 5725 5712 5698 5683 5667 5650 5632 5613 5593 5573 5554 5536 5518 5500 5482 5463
5888 5886 5884 5882 5879 5876 5873 5870 5866 5862 5858 5854 5849 5845 5841 5835 5829 5822 5816 5808 5800 5791 5782 5773 5763 5753 5742 5729 5716 5703 5688 5672 5656 5639 5621 5602 5582 5563 5544 5526 5509 5491 5473 5454
5887 5885 5883 5881 5879 5876 5873 5870 5866 5861 5857 5853 5848 5842 5839 5832 5825 5818 5811 5803 5794 5785 5776 5767 5756 5745 5734 5721 5708 5694 5678 5663 5646 5629 5611 5592 5573 5553 5535 5518 5501 5483 5465 5447
5886 5885 5882 5880 5878 5875 5871 5868 5865 5860 5855 5852 5846 5841 5837 5829 5822 5814 5806 5798 5789 5780 5770 5760 5749 5738 5726 5713 5699 5685 5670 5654 5637 5620 5601 5583 5564 5545 5527 5509 5492 5475 5457 5439
5884 5883 5881 5878 5876 5873 5870 5866 5863 5859 5854 5849 5844 5839 5833 5825 5818 5810 5802 5793 5784 5774 5764 5753 5742 5731 5719 5705 5691 5677 5661 5646 5629 5612 5593 5575 5556 5538 5520 5503 5485 5468 5451 5433
5882 5881 5879 5877 5875 5871 5868 5864 5860 5855 5850 5846 5841 5835 5829 5821 5814 5807 5798 5789 5779 5769 5758 5747 5736 5724 5711 5698 5684 5669 5654 5638 5622 5604 5586 5568 5550 5532 5515 5497 5480 5463 5446 5429
5880 5879 5877 5875 5872 5869 5866 5862 5857 5852 5847 5842 5837 5834 5826 5819 5811 5803 5794 5784 5774 5764 5753 5741 5729 5717 5705 5691 5677 5663 5647 5632 5615 5598 5580 5562 5544 5527 5510 5493 5476 5459 5443 5426
5877 5876 5874 5872 5869 5866 5863 5859 5855 5852 5846 5840 5835 5832 5822 5815 5807 5799 5790 5780 5770 5759 5747 5736 5724 5711 5698 5685 5671 5656 5641 5625 5609 5592 5575 5557 5540 5523 5506 5489 5473 5457 5440 5424
5873 5873 5871 5869 5868 5864 5860 5856 5852 5848 5843 5838 5832 5829 5819 5812 5804 5795 5786 5776 5765 5754 5742 5730 5718 5706 5692 5679 5665 5650 5635 5619 5603 5587 5570 5553 5536 5519 5503 5486 5471 5455 5439 5422
5869 5868 5867 5866 5862 5859 5856 5853 5848 5844 5839 5835 5830 5824 5817 5808 5800 5792 5782 5772 5761 5750 5738 5726 5713 5700 5687 5673 5659 5644 5630 5614 5598 5582 5566 5549 5533 5516 5500 5484 5468 5453 5438 5422
5864 5863 5861 5860 5857 5855 5852 5848 5844 5840 5835 5831 5825 5819 5812 5804 5796 5787 5778 5768 5757 5746 5734 5722 5709 5695 5682 5668 5654 5639 5625 5609 5594 5578 5562 5546 5530 5514 5498 5482 5467 5452 5437 5422
5858 5857 5856 5855 5852 5849 5847 5844 5840 5835 5830 5826 5820 5814 5807 5800 5791 5783 5774 5764 5753 5742 5730 5717 5704 5691 5677 5663 5649 5635 5620 5605 5590 5574 5559 5543 5527 5512 5496 5481 5467 5452 5437 5422
5852 5851 5850 5849 5846 5844 5842 5839 5835 5831 5826 5821 5815 5810 5803 5796 5787 5778 5770 5760 5749 5738 5726 5713 5700 5687 5673 5659 5645 5631 5616 5601 5586 5571 5556 5541 5525 5510 5495 5481 5467 5452 5438 5424
5845 5843 5841 5841 5840 5838 5839 5833 5829 5826 5821 5815 5810 5804 5797 5790 5782 5773 5764 5755 5744 5733 5722 5709 5696 5683 5669 5655 5641 5627 5613 5598 5583 5568 5554 5539 5523 5509 5494 5480 5467 5453 5439 5426
5837 5835 5833 5833 5831 5831 5831 5826 5821 5818 5816 5809 5804 5798 5791 5784 5777 5769 5760 5750 5740 5729 5718 5706 5693 5680 5666 5652 5638 5624 5609 5595 5581 5566 5552 5537 5522 5508 5494 5480 5467 5453 5440 5427
5828 5826 5826 5824 5822 5822 5824 5818 5813 5811 5808 5803 5797 5791 5784 5777 5770 5763 5754 5745 5735 5724 5713 5702 5689 5676 5663 5649 5634 5621 5607 5593 5579 5565 5550 5536 5522 5508 5494 5480 5467 5453 5440 5428
5819 5817 5816 5814 5812 5813 5813 5808 5804 5802 5799 5794 5788 5783 5777 5770 5763 5756 5747 5739 5729 5719 5709 5697 5685 5673 5659 5646 5632 5618 5604 5591 5577 5563 5549 5535 5521 5508 5494 5481 5468 5454 5441 5428
5808 5807 5807 5805 5804 5807 5802 5799 5795 5792 5789 5785 5780 5775 5770 5763 5756 5749 5741 5733 5724 5714 5704 5693 5681 5669 5656 5643 5629 5615 5602 5589 5575 5562 5549 5535 5522 5508 5495 5482 5468 5455 5442 5430
5797 5797 5795 5796 5798 5797 5793 5789 5785 5782 5779 5775 5771 5767 5762 5756 5749 5742 5735 5727 5718 5709 5699 5689 5677 5666 5653 5640 5626 5613 5600 5586 5573 5560 5547 5534 5521 5508 5496 5483 5470 5457 5445 5433
5786 5786 5784 5785 5788 5786 5782 5778 5775 5772 5769 5765 5762 5758 5753 5747 5741 5735 5728 5720 5712 5703 5694 5684 5673 5662 5650 5637 5624 5610 5597 5584 5571 5559 5546 5533 5520 5507 5495 5483 5471 5460 5448 5437
5773 5774 5774 5774 5777 5774 5771 5768 5764 5761 5758 5754 5751 5747 5743 5738 5733 5727 5720 5713 5706 5697 5688 5679 5669 5658 5646 5634 5621 5608 5595 5582 5570 5557 5544 5532 5519 5506 5494 5482 5472 5460 5449 5438
5762 5763 5762 5762 5764 5759 5759 5757 5753 5750 5747 5744 5740 5737 5733 5728 5723 5718 5712 5705 5699 5691 5682 5673 5664 5653 5642 5630 5618 5606 5593 5580 5568 5556 5543 5531 5518 5505 5493 5481 5470 5459 5449 5439